Tracking 19562 objects as of 22-Mar-2019
HD Live streaming from Space Station
objects crossing your sky now

FENGYUN 1C DEB

Track FENGYUN 1C DEB now!
10-day predictions


NORAD ID: 31773
Int'l Code: 1999-025CFY
Perigee: 724.1 km
Apogee: 826.1 km
Inclination: 99.0 °
Period: 100.2 minutes
Semi major axis: 7146 km
RCS: 0.0025 m2 (small)
Launch date: May 10, 1999
Source: People's Republic of China (PRC)
Launch site: Taiyaun Space Center, China (TSC)

Note: This is SATELLITE DEBRIS
aabbcc
Your satellite tracking list
Your tracking list is empty




NASA's NSSDC Master Catalog

Two Line Element Set (TLE):
1 31773U 99025CFY 19080.29987747 +.00000617 +00000-0 +21779-3 0  9990
2 31773 099.0096 269.4571 0071410 308.6085 050.8719 14.37137652296683
Source of the keplerian elements: AFSPC